Year,Month,Day,Hour,Minute,Value (Times are PST for temperature in C)
2010,05,28,00,00,11.30
2010,05,28,00,01,11.30
2010,05,28,00,02,11.30
2010,05,28,00,03,11.30
2010,05,28,00,04,11.30
2010,05,28,00,05,11.30
2010,05,28,00,06,11.30
2010,05,28,00,07,11.30
2010,05,28,00,08,11.30
2010,05,28,00,09,11.30
2010,05,28,00,10,11.30
2010,05,28,00,11,11.30
2010,05,28,00,12,11.30
2010,05,28,00,13,11.30
2010,05,28,00,14,11.30
2010,05,28,00,15,11.30
2010,05,28,00,16,11.30
2010,05,28,00,17,11.30
2010,05,28,00,18,11.30
2010,05,28,00,19,11.30
2010,05,28,00,20,11.30
2010,05,28,00,21,11.30
2010,05,28,00,22,11.30
2010,05,28,00,23,11.40
2010,05,28,00,24,11.40
2010,05,28,00,25,11.40
2010,05,28,00,26,11.40
2010,05,28,00,27,11.40
2010,05,28,00,28,11.40
2010,05,28,00,29,11.40
2010,05,28,00,30,11.40
2010,05,28,00,31,11.40
2010,05,28,00,32,11.40
2010,05,28,00,33,11.40
2010,05,28,00,34,11.40
2010,05,28,00,35,11.40
2010,05,28,00,36,11.40
2010,05,28,00,37,11.40
2010,05,28,00,38,11.40
2010,05,28,00,39,11.40
2010,05,28,00,40,11.50
2010,05,28,00,41,11.50
2010,05,28,00,42,11.40
2010,05,28,00,43,11.40
2010,05,28,00,44,11.40
2010,05,28,00,45,11.40
2010,05,28,00,46,11.40
2010,05,28,00,47,11.40
2010,05,28,00,48,11.40
2010,05,28,00,49,11.40
2010,05,28,00,50,11.50
2010,05,28,00,51,11.50
2010,05,28,00,52,11.50
2010,05,28,00,53,11.50
2010,05,28,00,54,11.50
2010,05,28,00,55,11.50
2010,05,28,00,56,11.40
2010,05,28,00,57,11.40
2010,05,28,00,58,11.40
2010,05,28,00,59,11.40
2010,05,28,01,00,11.40
2010,05,28,01,01,11.50
2010,05,28,01,02,11.50
2010,05,28,01,03,11.50
2010,05,28,01,04,11.50
2010,05,28,01,05,11.40
2010,05,28,01,06,11.40
2010,05,28,01,07,11.40
2010,05,28,01,08,11.40
2010,05,28,01,09,11.40
2010,05,28,01,10,11.40
2010,05,28,01,11,11.40
2010,05,28,01,12,11.40
2010,05,28,01,13,11.40
2010,05,28,01,14,11.40
2010,05,28,01,15,11.40
2010,05,28,01,16,11.40
2010,05,28,01,17,11.40
2010,05,28,01,18,11.30
2010,05,28,01,19,11.30
2010,05,28,01,20,11.30
2010,05,28,01,21,11.30
2010,05,28,01,22,11.30
2010,05,28,01,23,11.20
2010,05,28,01,24,11.20
2010,05,28,01,25,11.20
2010,05,28,01,26,11.20
2010,05,28,01,27,11.20
2010,05,28,01,28,11.10
2010,05,28,01,29,11.10
2010,05,28,01,30,11.10
2010,05,28,01,31,11.10
2010,05,28,01,32,11.10
2010,05,28,01,33,11.10
2010,05,28,01,34,11.10
2010,05,28,01,35,11.10
2010,05,28,01,36,11.10
2010,05,28,01,37,11.10
2010,05,28,01,38,11.10
2010,05,28,01,39,11.10
2010,05,28,01,40,11.10
2010,05,28,01,41,11.10
2010,05,28,01,42,11.10
2010,05,28,01,43,11.10
2010,05,28,01,44,11.10
2010,05,28,01,45,11.10
2010,05,28,01,46,11.10
2010,05,28,01,47,11.10
2010,05,28,01,48,11.10
2010,05,28,01,49,11.10
2010,05,28,01,50,11.10
2010,05,28,01,51,11.10
2010,05,28,01,52,11.10
2010,05,28,01,53,11.10
2010,05,28,01,54,11.10
2010,05,28,01,55,11.10
2010,05,28,01,56,11.10
2010,05,28,01,57,11.10
2010,05,28,01,58,11.10
2010,05,28,01,59,11.10
2010,05,28,02,00,11.10
2010,05,28,02,01,11.10
2010,05,28,02,02,11.10
2010,05,28,02,03,11.10
2010,05,28,02,04,11.10
2010,05,28,02,05,11.10
2010,05,28,02,06,11.10
2010,05,28,02,07,11.10
2010,05,28,02,08,11.10
2010,05,28,02,09,11.10
2010,05,28,02,10,11.10
2010,05,28,02,11,11.10
2010,05,28,02,12,11.10
2010,05,28,02,13,11.10
2010,05,28,02,14,11.10
2010,05,28,02,15,11.10
2010,05,28,02,16,11.10
2010,05,28,02,17,11.10
2010,05,28,02,18,11.10
2010,05,28,02,19,11.10
2010,05,28,02,20,11.10
2010,05,28,02,21,11.20
2010,05,28,02,22,11.20
2010,05,28,02,23,11.20
2010,05,28,02,24,11.20
2010,05,28,02,25,11.10
2010,05,28,02,26,11.10
2010,05,28,02,27,11.10
2010,05,28,02,28,11.10
2010,05,28,02,29,11.10
2010,05,28,02,30,11.10
2010,05,28,02,31,11.10
2010,05,28,02,32,11.10
2010,05,28,02,33,11.10
2010,05,28,02,34,11.10
2010,05,28,02,35,11.10
2010,05,28,02,36,11.10
2010,05,28,02,37,11.10
2010,05,28,02,38,11.10
2010,05,28,02,39,11.10
2010,05,28,02,40,11.10
2010,05,28,02,41,11.10
2010,05,28,02,42,11.10
2010,05,28,02,43,11.10
2010,05,28,02,44,11.10
2010,05,28,02,45,11.10
2010,05,28,02,46,11.10
2010,05,28,02,47,11.10
2010,05,28,02,48,11.10
2010,05,28,02,49,11.10
2010,05,28,02,50,11.10
2010,05,28,02,51,11.10
2010,05,28,02,52,11.10
2010,05,28,02,53,11.10
2010,05,28,02,54,11.10
2010,05,28,02,55,11.10
2010,05,28,02,56,11.10
2010,05,28,02,57,11.10
2010,05,28,02,58,11.00
2010,05,28,02,59,11.00
2010,05,28,03,00,11.00
2010,05,28,03,01,11.00
2010,05,28,03,02,11.00
2010,05,28,03,03,11.00
2010,05,28,03,04,11.00
2010,05,28,03,05,11.00
2010,05,28,03,06,11.00
2010,05,28,03,07,11.00
2010,05,28,03,08,11.00
2010,05,28,03,09,11.00
2010,05,28,03,10,11.00
2010,05,28,03,11,11.00
2010,05,28,03,12,11.00
2010,05,28,03,13,11.00
2010,05,28,03,14,11.00
2010,05,28,03,15,11.00
2010,05,28,03,16,11.00
2010,05,28,03,17,11.00
2010,05,28,03,18,11.00
2010,05,28,03,19,10.90
2010,05,28,03,20,10.90
2010,05,28,03,21,10.90
2010,05,28,03,22,10.90
2010,05,28,03,23,10.90
2010,05,28,03,24,10.90
2010,05,28,03,25,10.90
2010,05,28,03,26,10.90
2010,05,28,03,27,10.90
2010,05,28,03,28,10.90
2010,05,28,03,29,10.90
2010,05,28,03,30,10.90
2010,05,28,03,31,10.90
2010,05,28,03,32,10.90
2010,05,28,03,33,10.90
2010,05,28,03,34,10.90
2010,05,28,03,35,10.90
2010,05,28,03,36,10.90
2010,05,28,03,37,10.90
2010,05,28,03,38,10.90
2010,05,28,03,39,10.90
2010,05,28,03,40,10.90
2010,05,28,03,41,10.90
2010,05,28,03,42,10.90
2010,05,28,03,43,10.90
2010,05,28,03,44,10.90
2010,05,28,03,45,10.90
2010,05,28,03,46,10.80
2010,05,28,03,47,10.80
2010,05,28,03,48,10.90
2010,05,28,03,49,10.90
2010,05,28,03,50,10.90
2010,05,28,03,51,10.80
2010,05,28,03,52,10.80
2010,05,28,03,53,10.80
2010,05,28,03,54,10.80
2010,05,28,03,55,10.80
2010,05,28,03,56,10.80
2010,05,28,03,57,10.80
2010,05,28,03,58,10.80
2010,05,28,03,59,10.80
2010,05,28,04,00,10.80
2010,05,28,04,01,10.80
2010,05,28,04,02,10.80
2010,05,28,04,03,10.80
2010,05,28,04,04,10.80
2010,05,28,04,05,10.80
2010,05,28,04,06,10.80
2010,05,28,04,07,10.80
2010,05,28,04,08,10.80
2010,05,28,04,09,10.80
2010,05,28,04,10,10.80
2010,05,28,04,11,10.80
2010,05,28,04,12,10.80
2010,05,28,04,13,10.80
2010,05,28,04,14,10.80
2010,05,28,04,15,10.80
2010,05,28,04,16,10.80
2010,05,28,04,17,10.80
2010,05,28,04,18,10.80
2010,05,28,04,19,10.80
2010,05,28,04,20,10.80
2010,05,28,04,21,10.80
2010,05,28,04,22,10.70
2010,05,28,04,23,10.70
2010,05,28,04,24,10.70
2010,05,28,04,25,10.70
2010,05,28,04,26,10.70
2010,05,28,04,27,10.70
2010,05,28,04,28,10.70
2010,05,28,04,29,10.70
2010,05,28,04,30,10.70
2010,05,28,04,31,10.70
2010,05,28,04,32,10.70
2010,05,28,04,33,10.70
2010,05,28,04,34,10.70
2010,05,28,04,35,10.70
2010,05,28,04,36,10.70
2010,05,28,04,37,10.70
2010,05,28,04,38,10.70
2010,05,28,04,39,10.70
2010,05,28,04,40,10.70
2010,05,28,04,41,10.70
2010,05,28,04,42,10.70
2010,05,28,04,43,10.70
2010,05,28,04,44,10.70
2010,05,28,04,45,10.70
2010,05,28,04,46,10.70
2010,05,28,04,47,10.70
2010,05,28,13,51,11.90
2010,05,28,13,52,11.90
2010,05,28,13,53,11.90
2010,05,28,13,54,11.90
2010,05,28,13,55,11.90
2010,05,28,13,56,11.90
2010,05,28,13,57,11.90
2010,05,28,13,58,11.90
2010,05,28,13,59,11.90
2010,05,28,14,00,11.80
2010,05,28,14,01,11.80
2010,05,28,14,02,11.80
2010,05,28,14,03,11.80
2010,05,28,14,04,11.80
2010,05,28,14,05,11.80
2010,05,28,14,06,11.80
2010,05,28,14,07,11.80
2010,05,28,14,08,11.80
2010,05,28,14,09,11.80
2010,05,28,14,10,11.90
2010,05,28,14,11,11.90
2010,05,28,14,12,11.90
2010,05,28,14,13,11.90
2010,05,28,14,14,11.90
2010,05,28,14,15,11.90
2010,05,28,14,16,12.00
2010,05,28,14,17,12.00
2010,05,28,14,18,12.00
2010,05,28,14,19,11.90
2010,05,28,14,20,11.90
2010,05,28,14,21,11.90
2010,05,28,14,22,11.90
2010,05,28,14,23,11.90
2010,05,28,14,24,11.90
2010,05,28,14,25,11.90
2010,05,28,14,26,11.90
2010,05,28,14,27,11.90
2010,05,28,14,28,11.90
2010,05,28,14,29,11.90
2010,05,28,14,30,11.90
2010,05,28,14,31,11.90
2010,05,28,14,32,12.00
2010,05,28,14,33,12.00
2010,05,28,14,34,12.00
2010,05,28,14,35,12.00
2010,05,28,14,36,12.00
2010,05,28,14,37,12.00
2010,05,28,14,38,12.00
2010,05,28,14,39,12.00
2010,05,28,14,40,12.00
2010,05,28,14,41,12.00
2010,05,28,14,42,12.00
2010,05,28,14,43,12.00
2010,05,28,14,44,12.00
2010,05,28,14,45,12.00
2010,05,28,14,46,12.00
2010,05,28,14,47,12.10
2010,05,28,14,48,12.10
2010,05,28,14,49,12.10
2010,05,28,14,50,12.00
2010,05,28,14,51,12.00
2010,05,28,14,52,12.00
2010,05,28,14,53,12.00
2010,05,28,14,54,12.00
2010,05,28,14,55,12.10
2010,05,28,14,56,12.10
2010,05,28,14,57,12.10
2010,05,28,14,58,12.10
2010,05,28,14,59,12.10
2010,05,28,15,00,12.10
2010,05,28,15,01,12.00
2010,05,28,15,02,12.10
2010,05,28,15,03,12.00
2010,05,28,15,04,12.00
2010,05,28,15,05,12.00
2010,05,28,15,06,12.00
2010,05,28,15,07,12.10
2010,05,28,15,08,12.10
2010,05,28,15,09,12.10
2010,05,28,15,10,12.10
2010,05,28,15,11,12.10
2010,05,28,15,12,12.10
2010,05,28,15,13,12.10
2010,05,28,15,14,12.10
2010,05,28,15,15,12.10
2010,05,28,15,16,12.10
2010,05,28,15,17,12.10
2010,05,28,15,18,12.10
2010,05,28,15,19,12.20
2010,05,28,15,20,12.20
2010,05,28,15,21,12.20
2010,05,28,15,22,12.20
2010,05,28,15,23,12.20
2010,05,28,15,24,12.20
2010,05,28,15,25,12.20
2010,05,28,15,26,12.20
2010,05,28,15,27,12.20
2010,05,28,15,28,12.10
2010,05,28,15,29,12.20
2010,05,28,15,30,12.20
2010,05,28,15,31,12.20
2010,05,28,15,32,12.20
2010,05,28,15,33,12.20
2010,05,28,15,34,12.20
2010,05,28,15,35,12.20
2010,05,28,15,36,12.20
2010,05,28,15,37,12.20
2010,05,28,15,38,12.20
2010,05,28,15,39,12.20
2010,05,28,15,40,12.20
2010,05,28,15,41,12.20
2010,05,28,15,42,12.20
2010,05,28,15,43,12.20
2010,05,28,15,44,12.20
2010,05,28,15,45,12.20
2010,05,28,15,46,12.20
2010,05,28,15,47,12.20
2010,05,28,15,48,12.20
2010,05,28,15,49,12.20
2010,05,28,15,50,12.20
2010,05,28,15,51,12.20
2010,05,28,15,52,12.20
2010,05,28,15,53,12.10
2010,05,28,15,54,12.10
2010,05,28,15,55,12.10
2010,05,28,15,56,12.10
2010,05,28,15,57,12.10
2010,05,28,15,58,12.10
2010,05,28,15,59,12.10
2010,05,28,16,00,12.10
2010,05,28,16,01,12.10
2010,05,28,16,02,12.00
2010,05,28,16,03,12.00
2010,05,28,16,04,12.10
2010,05,28,16,05,12.10
2010,05,28,16,06,12.10
2010,05,28,16,07,12.10
2010,05,28,16,08,12.10
2010,05,28,16,09,12.10
2010,05,28,16,10,12.10
2010,05,28,16,11,12.10
2010,05,28,16,12,12.10
2010,05,28,16,13,12.10
2010,05,28,16,14,12.10
2010,05,28,16,15,12.10
2010,05,28,16,16,12.10
2010,05,28,16,17,12.10
2010,05,28,16,18,12.10
2010,05,28,16,19,12.20
2010,05,28,16,20,12.20
2010,05,28,16,21,12.20
2010,05,28,16,22,12.20
2010,05,28,16,23,12.10
2010,05,28,16,24,12.10
2010,05,28,16,25,12.10
2010,05,28,16,26,12.10
2010,05,28,16,27,12.10
2010,05,28,16,28,12.10
2010,05,28,16,29,12.10
2010,05,28,16,30,12.10
2010,05,28,16,31,12.10
2010,05,28,16,32,12.10
2010,05,28,16,33,12.10
2010,05,28,16,34,12.10
2010,05,28,16,35,12.10
2010,05,28,16,36,12.00
2010,05,28,16,37,12.00
2010,05,28,16,38,12.00
2010,05,28,16,39,12.00
2010,05,28,16,40,11.90
2010,05,28,16,41,11.90
2010,05,28,16,42,11.90
2010,05,28,16,43,11.90
2010,05,28,16,44,11.90
2010,05,28,16,45,11.90
2010,05,28,16,46,11.90
2010,05,28,16,47,11.80
2010,05,28,16,48,11.80
2010,05,28,16,49,11.80
2010,05,28,16,50,11.80
2010,05,28,16,51,11.80
2010,05,28,16,52,11.80
2010,05,28,16,53,11.80
2010,05,28,16,54,11.80
2010,05,28,16,55,11.80
2010,05,28,16,56,11.80
2010,05,28,16,57,11.80
2010,05,28,16,58,11.80
2010,05,28,16,59,11.80
2010,05,28,17,00,11.80
2010,05,28,17,01,11.80
2010,05,28,17,02,11.80
2010,05,28,17,03,11.80
2010,05,28,17,04,11.80
2010,05,28,17,05,11.80
2010,05,28,17,06,11.80
2010,05,28,17,07,11.80
2010,05,28,17,08,11.80
2010,05,28,17,09,11.80
2010,05,28,17,10,11.80
2010,05,28,17,11,11.80
2010,05,28,17,12,11.80
2010,05,28,17,13,11.80
2010,05,28,17,14,11.80
2010,05,28,17,15,11.80
2010,05,28,17,16,11.80
2010,05,28,17,17,11.80
2010,05,28,17,18,11.80
2010,05,28,17,19,11.70
2010,05,28,17,20,11.70
2010,05,28,17,21,11.70
2010,05,28,17,22,11.70
2010,05,28,17,23,11.70
2010,05,28,17,24,11.70
2010,05,28,17,25,11.70
2010,05,28,17,26,11.70
2010,05,28,17,27,11.70
2010,05,28,17,28,11.70
2010,05,28,17,29,11.70
2010,05,28,17,30,11.70
2010,05,28,17,31,11.70
2010,05,28,17,32,11.60
2010,05,28,17,33,11.60
2010,05,28,17,34,11.60
2010,05,28,17,35,11.60
2010,05,28,17,36,11.60
2010,05,28,17,37,11.60
2010,05,28,17,38,11.60
2010,05,28,17,39,11.60
2010,05,28,17,40,11.60
2010,05,28,17,41,11.60
2010,05,28,17,42,11.60
2010,05,28,17,43,11.60
2010,05,28,17,44,11.60
2010,05,28,17,45,11.60
2010,05,28,17,46,11.60
2010,05,28,17,47,11.60
2010,05,28,17,48,11.50
2010,05,28,17,49,11.50
2010,05,28,17,50,11.50
2010,05,28,17,51,11.50
2010,05,28,17,52,11.50
2010,05,28,17,53,11.50
2010,05,28,17,54,11.50
2010,05,28,17,55,11.50
2010,05,28,17,56,11.50
2010,05,28,17,57,11.50
2010,05,28,17,58,11.50
2010,05,28,17,59,11.50
2010,05,28,18,00,11.50
2010,05,28,18,01,11.50
2010,05,28,18,02,11.50
2010,05,28,18,03,11.50
2010,05,28,18,04,11.40
2010,05,28,18,05,11.40
2010,05,28,18,06,11.40
2010,05,28,18,07,11.40
2010,05,28,18,08,11.40
2010,05,28,18,09,11.40
2010,05,28,18,10,11.40
2010,05,28,18,11,11.40
2010,05,28,18,12,11.40
2010,05,28,18,13,11.40
2010,05,28,18,14,11.40
2010,05,28,18,15,11.40
2010,05,28,18,16,11.40
2010,05,28,18,17,11.40
2010,05,28,18,18,11.40
2010,05,28,18,19,11.40
2010,05,28,18,20,11.40
2010,05,28,18,21,11.40
2010,05,28,18,22,11.40
2010,05,28,18,23,11.40
2010,05,28,18,24,11.40
2010,05,28,18,25,11.40
